Weather History for Amsterdam Airport Schiphol, Netherlands

Change the Weather History Date:

Friday, January 24, 2014

  Actual Average Record
Temperature  
Mean Temperature 40 °F -  
Max Temperature 44 °F 43 °F - ()
Min Temperature 35 °F 34 °F - ()
Degree Days  
Heating Degree Days 26    
Moisture  
Dew Point 38 °F    
Average Humidity 91    
Maximum Humidity 100    
Minimum Humidity 79    
Precipitation  
Precipitation 0.04 in - - ()
Sea Level Pressure  
Sea Level Pressure 29.96 in    
Wind  
Wind Speed 6 mph ()    
Max Wind Speed 13 mph    
Max Gust Speed -    
Visibility 8.0 miles    
Events Rain    
T = Trace of Precipitation, MM = Missing Value Source: Averaged Metar Reports

Daily Weather History Graph

Daily Weather History Graph

Search for Another Location

Airport:

Trip Planner

Search our weather history database for the weather conditions in past years. The results will help you decide how hot, cold, wet, or windy it might be!

Date:

Astronomy

Jan. 24, 2014 Rise Set
Actual Time 8:33 AM CET 5:12 PM CET
Civil Twilight 7:55 AM CET 5:50 PM CET
Nautical Twilight 7:13 AM CET 6:32 PM CET
Astronomical Twilight 6:33 AM CET 7:12 PM CET
Moon 1:30 AM CET (1/24) 11:31 AM CET (1/24)
Length of Visible Light 9h 55m
Length of Day
8h 39m
Waning Gibbous, 47% of the Moon is Illuminated
Jan 24
Waning Gibbous
Jan 30
New
Feb 6
First Quarter
Feb 15
Full
Feb 22
Last Quarter

Hourly Weather History & Observations

Time (CET) Temp. Windchill Dew Point Humidity Pressure Visibility Wind Dir Wind Speed Gust Speed Precip Events Conditions
12:00 AM 39 °F - 36 °F 86% 29.83 in 12 mi NW 11.2 mph - - Rain Light Rain Showers
12:25 AM 37.4 °F 34.9 °F 35.6 °F 93% 29.83 in 6.2 mi NW 3.5 mph - N/A   Partly Cloudy
12:55 AM 35.6 °F 30.7 °F 33.8 °F 93% 29.83 in 6.2 mi West 5.8 mph - N/A   Partly Cloudy
1:00 AM 35 °F - 34 °F 93% 29.84 in 16 mi West 6.7 mph - - Rain Rain
1:25 AM 37.4 °F 29.3 °F 35.6 °F 93% 29.83 in 6.2 mi WNW 12.7 mph - N/A   Partly Cloudy
1:55 AM 39.2 °F 32.5 °F 35.6 °F 87% 29.83 in 6.2 mi West 10.4 mph - N/A   Scattered Clouds
2:00 AM 39 °F - 36 °F 84% 29.85 in 17 mi West 11.2 mph - - Rain Light Drizzle
2:25 AM 37.4 °F 29.8 °F 35.6 °F 93% 29.83 in 6.2 mi West 11.5 mph - N/A   Partly Cloudy
2:55 AM 39.2 °F 34.2 °F 37.4 °F 93% 29.86 in 6.2 mi NNW 6.9 mph - N/A Rain Light Rain Showers
3:00 AM 39 °F - 36 °F 87% 29.87 in 17 mi NNW 4.5 mph - - Rain Drizzle
3:25 AM 39.2 °F 33.0 °F 37.4 °F 93% 29.86 in 6.2 mi NW 9.2 mph - N/A Rain Rain Showers
3:55 AM 39.2 °F 33.0 °F 37.4 °F 93% 29.86 in 6.2 mi WNW 9.2 mph - N/A Rain Light Rain Showers
4:00 AM 39 °F - 37 °F 90% 29.88 in 7 mi WNW 8.9 mph - - Rain Light Rain Showers
4:25 AM 39.2 °F 33.6 °F 37.4 °F 93% 29.86 in 5.6 mi West 8.1 mph - N/A Rain Light Rain Showers
4:55 AM 39.2 °F 33.6 °F 37.4 °F 93% 29.86 in 6.2 mi West 8.1 mph - N/A Rain Light Rain Showers
5:00 AM 39 °F - 37 °F 90% 29.89 in 19 mi West 8.9 mph - - Rain Rain
5:25 AM 37.4 °F 32.1 °F 35.6 °F 93% 29.86 in 6.2 mi West 6.9 mph - N/A   Partly Cloudy
5:55 AM 39.2 °F 32.5 °F 37.4 °F 93% 29.89 in 6.2 mi West 10.4 mph - N/A   Partly Cloudy
6:00 AM 40 °F - 38 °F 88% 29.90 in 18 mi West 8.9 mph - - Rain Rain
6:25 AM 39.2 °F 32.5 °F 37.4 °F 93% 29.89 in 5.6 mi West 10.4 mph - N/A Rain Rain Showers
6:55 AM 39.2 °F 35.0 °F 37.4 °F 93% 29.89 in 6.2 mi WSW 5.8 mph - N/A Rain Light Rain Showers
7:00 AM 39 °F - 37 °F 88% 29.91 in 28 mi WSW 6.7 mph - - Rain Rain
7:25 AM 39.2 °F 34.2 °F 37.4 °F 93% 29.92 in 6.2 mi WNW 6.9 mph - N/A Rain Light Rain Showers
7:55 AM 39.2 °F 37.0 °F 37.4 °F 93% 29.92 in 6.2 mi West 3.5 mph - N/A   Scattered Clouds
8:00 AM 38 °F - 37 °F 93% 29.93 in 13 mi WSW 4.5 mph - - Rain Rain
8:25 AM 37.4 °F 34.9 °F 37.4 °F 100% 29.92 in 6.2 mi SW 3.5 mph - N/A Rain Light Rain Showers
8:55 AM 39.2 °F - 39.2 °F 100% 29.92 in 6.2 mi SW 2.3 mph - N/A   Mostly Cloudy
9:00 AM 39 °F - 38 °F 97% 29.95 in 6 mi WSW 2.2 mph - - Rain Light Rain Showers
9:25 AM 39.2 °F - 39.2 °F 100% 29.95 in 6.2 mi Variable 2.3 mph - N/A Rain Light Rain Showers
9:55 AM 41.0 °F 38.0 °F 39.2 °F 93% 29.95 in 6.2 mi West 4.6 mph - N/A   Mostly Cloudy
10:00 AM 42 °F - 40 °F 88% 29.97 in 19 mi West 4.5 mph - - Rain Rain
10:25 AM 42.8 °F 40.1 °F 39.2 °F 87% 29.95 in 6.2 mi West 4.6 mph - N/A   Mostly Cloudy
10:55 AM 42.8 °F 41.1 °F 41.0 °F 93% 29.95 in 6.2 mi South 3.5 mph - N/A   Mostly Cloudy
11:00 AM 42 °F - 40 °F 89% 29.98 in 19 mi South 2.2 mph - -   Partly Cloudy
11:25 AM 42.8 °F 40.1 °F 41.0 °F 93% 29.98 in 6.2 mi South 4.6 mph - N/A   Mostly Cloudy
11:55 AM 42.8 °F 40.1 °F 41.0 °F 93% 29.98 in 6.2 mi SSW 4.6 mph - N/A   Mostly Cloudy
12:00 PM 43 °F - 41 °F 89% 29.99 in 17 mi SW 4.5 mph - -   Partly Cloudy
12:25 PM 42.8 °F 40.1 °F 41.0 °F 93% 29.98 in 6.2 mi SW 4.6 mph - N/A   Mostly Cloudy
12:55 PM 44.6 °F - 39.2 °F 81% 29.98 in 6.2 mi Variable 2.3 mph - N/A   Mostly Cloudy
1:00 PM 44 °F - 40 °F 80% 29.99 in 17 mi West 2.2 mph - -   Partly Cloudy
1:25 PM 44.6 °F 43.1 °F 41.0 °F 87% 29.98 in 6.2 mi WNW 3.5 mph - N/A Rain Light Rain Showers
1:55 PM 42.8 °F 37.5 °F 39.2 °F 87% 29.98 in 6.2 mi West 9.2 mph - N/A Rain Light Rain Showers
2:00 PM 43 °F - 39 °F 79% 29.99 in 16 mi West 8.9 mph - - Rain Light Rain Showers
2:25 PM 42.8 °F 39.3 °F 39.2 °F 87% 29.98 in 6.2 mi WNW 5.8 mph - N/A Rain Light Rain Showers
2:55 PM 42.8 °F 41.1 °F 39.2 °F 87% 29.98 in 6.2 mi East 3.5 mph - N/A   Mostly Cloudy
3:00 PM 43 °F - 39 °F 79% 30.00 in 28 mi East 2.2 mph - - Rain Light Drizzle
3:25 PM 42.8 °F - 39.2 °F 87% 29.98 in 6.2 mi East 2.3 mph - N/A   Scattered Clouds
3:55 PM 42.8 °F - 39.2 °F 87% 29.98 in 6.2 mi East 2.3 mph - N/A   Scattered Clouds
4:00 PM 44 °F - 40 °F 79% 30.01 in 28 mi ESE 2.2 mph - - Rain Drizzle
4:25 PM 42.8 °F - 41.0 °F 93% 30.01 in 6.2 mi South 2.3 mph - N/A   Mostly Cloudy
4:55 PM 41.0 °F 39.0 °F 39.2 °F 93% 30.01 in 6.2 mi ESE 3.5 mph - N/A   Mostly Cloudy
5:00 PM 41 °F - 39 °F 91% 30.03 in 25 mi East 4.5 mph - -   Partly Cloudy
5:25 PM 41.0 °F 38.0 °F 39.2 °F 93% 30.01 in 6.2 mi East 4.6 mph - N/A Rain Light Rain Showers
5:55 PM 41.0 °F 39.0 °F 39.2 °F 93% 30.01 in 6.2 mi East 3.5 mph - N/A Rain Light Rain Showers
6:00 PM 41 °F - 40 °F 93% 30.03 in 9 mi East 4.5 mph - -   Partly Cloudy
6:25 PM 41.0 °F 39.0 °F 39.2 °F 93% 30.04 in 6.2 mi ESE 3.5 mph - N/A   Mostly Cloudy
6:55 PM 41.0 °F 36.4 °F 39.2 °F 93% 30.04 in 6.2 mi ESE 6.9 mph - N/A   Mostly Cloudy
7:00 PM 41 °F - 40 °F 95% 30.05 in 9 mi ESE 6.7 mph - -   Partly Cloudy
7:25 PM 41.0 °F 35.8 °F 39.2 °F 93% 30.04 in 6.2 mi East 8.1 mph - N/A   Mostly Cloudy
7:55 PM 41.0 °F 35.8 °F 39.2 °F 93% 30.04 in 6.2 mi ESE 8.1 mph - N/A Rain Light Rain Showers
8:00 PM 41 °F - 40 °F 92% 30.05 in 6 mi ESE 8.9 mph - -   Mist
8:25 PM 41.0 °F 36.4 °F 39.2 °F 93% 30.04 in 6.2 mi SE 6.9 mph - N/A   Mostly Cloudy
8:55 PM 41.0 °F 36.4 °F 41.0 °F 100% 30.04 in 6.2 mi SE 6.9 mph - N/A   Mostly Cloudy
9:00 PM 41 °F - 40 °F 95% 30.05 in 5 mi SE 6.7 mph - -   Unknown Precipitation
9:25 PM 41.0 °F 35.8 °F 39.2 °F 93% 30.04 in 5.6 mi SE 8.1 mph - N/A   Mostly Cloudy
9:55 PM 41.0 °F 35.8 °F 39.2 °F 93% 30.04 in 5.6 mi SE 8.1 mph - N/A   Mostly Cloudy
10:00 PM 40 °F - 39 °F 97% 30.06 in 5 mi SE 8.9 mph - -   Mist
10:25 PM 41.0 °F 37.1 °F 39.2 °F 93% 30.04 in 5.6 mi SE 5.8 mph - N/A   Mostly Cloudy
10:55 PM 41.0 °F 36.4 °F 39.2 °F 93% 30.06 in 5.6 mi SE 6.9 mph - N/A   Mostly Cloudy
11:00 PM 40 °F - 39 °F 94% 30.06 in 5 mi SE 6.7 mph - -   Mist
11:25 PM 39.2 °F 33.6 °F 39.2 °F 100% 30.06 in 5.0 mi SSE 8.1 mph - N/A   Mostly Cloudy
11:55 PM 39.2 °F 33.0 °F 37.4 °F 93% 30.04 in 3.7 mi SE 9.2 mph - N/A   Scattered Clouds